Time,TemperatureF,DewpointF,PressureIn,WindDirection,WindDirectionDegrees,WindSpeedMPH,WindSpeedGustMPH,Humidity,HourlyPrecipIn,Conditions,Clouds,dailyrainin,SoftwareType,DateUTC
2013-04-30 00:03:00,73.0,24.8,29.82,SW,225,7.6,12.3,17,0.00,,,0.00,WUHU21623XXSP,2013-04-30 07:03:00,
2013-04-30 00:08:00,73.0,24.8,29.82,SW,225,5.6,13.0,17,0.00,,,0.00,WUHU21623XXSP,2013-04-30 07:08:00,
2013-04-30 00:13:00,73.0,23.1,29.82,SSW,202,6.7,13.0,16,0.00,,,0.00,WUHU21623XXSP,2013-04-30 07:13:00,
2013-04-30 00:18:00,73.0,23.1,29.81,SW,225,5.8,15.4,16,0.00,,,0.00,WUHU21623XXSP,2013-04-30 07:18:00,
2013-04-30 00:23:00,72.9,23.0,29.81,SW,225,3.1,15.4,16,0.00,,,0.00,WUHU21623XXSP,2013-04-30 07:23:00,
2013-04-30 00:28:00,72.9,23.0,29.81,SW,225,6.0,16.1,16,0.00,,,0.00,WUHU21623XXSP,2013-04-30 07:28:00,
2013-04-30 00:33:00,73.0,23.1,29.81,SW,225,11.4,16.1,16,0.00,,,0.00,WUHU21623XXSP,2013-04-30 07:33:00,
2013-04-30 00:38:00,73.0,23.1,29.81,SSW,202,6.9,15.4,16,0.00,,,0.00,WUHU21623XXSP,2013-04-30 07:38:00,
2013-04-30 00:43:00,73.0,23.1,29.82,SSW,202,6.0,14.5,16,0.00,,,0.00,WUHU21623XXSP,2013-04-30 07:43:00,
2013-04-30 00:48:00,72.7,22.8,29.82,SW,225,8.3,12.3,16,0.00,,,0.00,WUHU21623XXSP,2013-04-30 07:48:00,
2013-04-30 00:53:00,72.7,22.8,29.82,SSW,202,7.8,12.3,16,0.00,,,0.00,WUHU21623XXSP,2013-04-30 07:53:00,
2013-04-30 00:58:00,72.3,22.5,29.82,SSW,202,0.0,11.9,16,0.00,,,0.00,WUHU21623XXSP,2013-04-30 07:58:00,
2013-04-30 01:03:00,72.1,22.4,29.82,SSW,202,3.8,10.1,16,0.00,,,0.00,WUHU21623XXSP,2013-04-30 08:03:00,
2013-04-30 01:08:00,71.8,23.7,29.82,SSW,202,0.0,5.4,17,0.00,,,0.00,WUHU21623XXSP,2013-04-30 08:08:00,
2013-04-30 01:13:00,71.4,23.4,29.82,SSW,202,0.0,4.5,17,0.00,,,0.00,WUHU21623XXSP,2013-04-30 08:13:00,
2013-04-30 01:18:00,71.2,23.3,29.82,SSW,202,0.0,6.5,17,0.00,,,0.00,WUHU21623XXSP,2013-04-30 08:18:00,
2013-04-30 01:23:00,71.1,21.5,29.82,WSW,247,5.8,7.6,16,0.00,,,0.00,WUHU21623XXSP,2013-04-30 08:23:00,
2013-04-30 01:28:00,71.2,21.6,29.81,SSW,202,4.9,11.6,16,0.00,,,0.00,WUHU21623XXSP,2013-04-30 08:28:00,
2013-04-30 01:33:00,71.4,21.8,29.81,SSW,202,6.3,12.8,16,0.00,,,0.00,WUHU21623XXSP,2013-04-30 08:33:00,
2013-04-30 01:38:00,71.8,22.1,29.81,SW,225,8.7,15.2,16,0.00,,,0.00,WUHU21623XXSP,2013-04-30 08:38:00,
2013-04-30 01:43:00,72.0,20.6,29.81,SSW,202,9.4,15.2,15,0.00,,,0.00,WUHU21623XXSP,2013-04-30 08:43:00,
2013-04-30 01:48:00,72.1,20.8,29.81,SW,225,7.2,13.6,15,0.00,,,0.00,WUHU21623XXSP,2013-04-30 08:48:00,
2013-04-30 01:53:00,72.1,20.8,29.80,SSW,202,11.6,14.5,15,0.00,,,0.00,WUHU21623XXSP,2013-04-30 08:53:00,
2013-04-30 01:58:00,72.1,20.8,29.81,SSW,202,11.9,14.5,15,0.00,,,0.00,WUHU21623XXSP,2013-04-30 08:58:00,
2013-04-30 02:03:00,72.1,20.8,29.80,SSW,202,5.6,13.2,15,0.00,,,0.00,WUHU21623XXSP,2013-04-30 09:03:00,
2013-04-30 02:08:00,72.1,20.8,29.80,SSW,202,5.6,14.1,15,0.00,,,0.00,WUHU21623XXSP,2013-04-30 09:08:00,
2013-04-30 02:13:00,72.1,20.8,29.80,SSW,202,3.1,14.1,15,0.00,,,0.00,WUHU21623XXSP,2013-04-30 09:13:00,
2013-04-30 02:18:00,72.0,19.0,29.80,SSW,202,9.6,12.5,14,0.00,,,0.00,WUHU21623XXSP,2013-04-30 09:18:00,
2013-04-30 02:23:00,71.8,20.4,29.80,SSW,202,8.9,13.4,15,0.00,,,0.00,WUHU21623XXSP,2013-04-30 09:23:00,
2013-04-30 02:28:00,71.8,18.8,29.80,SSW,202,3.6,13.4,14,0.00,,,0.00,WUHU21623XXSP,2013-04-30 09:28:00,
2013-04-30 02:33:00,71.8,20.4,29.80,SW,225,5.6,10.3,15,0.00,,,0.00,WUHU21623XXSP,2013-04-30 09:33:00,
2013-04-30 02:38:00,71.8,18.8,29.80,SSW,202,10.7,10.7,14,0.00,,,0.00,WUHU21623XXSP,2013-04-30 09:38:00,
2013-04-30 02:43:00,71.8,20.4,29.79,SSW,202,4.7,12.5,15,0.00,,,0.00,WUHU21623XXSP,2013-04-30 09:43:00,
2013-04-30 02:48:00,71.8,20.4,29.80,SSW,202,9.6,15.7,15,0.00,,,0.00,WUHU21623XXSP,2013-04-30 09:48:00,
2013-04-30 02:53:00,71.8,18.8,29.80,SSW,202,9.4,15.7,14,0.00,,,0.00,WUHU21623XXSP,2013-04-30 09:53:00,
2013-04-30 02:58:00,71.8,20.4,29.80,SSW,202,6.0,13.6,15,0.00,,,0.00,WUHU21623XXSP,2013-04-30 09:58:00,
2013-04-30 03:03:00,71.6,20.3,29.79,SSW,202,9.2,13.6,15,0.00,,,0.00,WUHU21623XXSP,2013-04-30 10:03:00,
2013-04-30 03:08:00,71.4,20.2,29.80,SW,225,5.4,13.4,15,0.00,,,0.00,WUHU21623XXSP,2013-04-30 10:08:00,
2013-04-30 03:13:00,71.4,20.2,29.79,SSW,202,7.4,13.4,15,0.00,,,0.00,WUHU21623XXSP,2013-04-30 10:13:00,
2013-04-30 03:18:00,71.4,20.2,29.80,SW,225,7.6,11.4,15,0.00,,,0.00,WUHU21623XXSP,2013-04-30 10:18:00,
2013-04-30 03:23:00,71.2,20.0,29.80,SW,225,3.4,11.4,15,0.00,,,0.00,WUHU21623XXSP,2013-04-30 10:23:00,
2013-04-30 03:28:00,71.2,20.0,29.80,SW,225,5.4,10.5,15,0.00,,,0.00,WUHU21623XXSP,2013-04-30 10:28:00,
2013-04-30 03:33:00,71.2,20.0,29.80,SW,225,7.6,10.5,15,0.00,,,0.00,WUHU21623XXSP,2013-04-30 10:33:00,
2013-04-30 03:38:00,70.9,19.7,29.80,SW,225,2.7,10.5,15,0.00,,,0.00,WUHU21623XXSP,2013-04-30 10:38:00,
2013-04-30 03:43:00,70.7,19.6,29.80,SW,225,4.3,9.2,15,0.00,,,0.00,WUHU21623XXSP,2013-04-30 10:43:00,
2013-04-30 03:48:00,70.0,20.6,29.79,SW,225,0.0,9.2,16,0.00,,,0.00,WUHU21623XXSP,2013-04-30 10:48:00,
2013-04-30 03:53:00,69.4,20.2,29.79,SW,225,2.9,8.1,16,0.00,,,0.00,WUHU21623XXSP,2013-04-30 10:53:00,
2013-04-30 03:58:00,69.3,18.4,29.79,SW,225,4.0,8.1,15,0.00,,,0.00,WUHU21623XXSP,2013-04-30 10:58:00,
2013-04-30 04:03:00,69.1,18.3,29.79,SW,225,0.0,8.1,15,0.00,,,0.00,WUHU21623XXSP,2013-04-30 11:03:00,
2013-04-30 04:08:00,69.1,19.9,29.79,SW,225,2.7,8.3,16,0.00,,,0.00,WUHU21623XXSP,2013-04-30 11:08:00,
2013-04-30 04:13:00,69.1,19.9,29.79,SSW,202,5.4,11.4,16,0.00,,,0.00,WUHU21623XXSP,2013-04-30 11:13:00,
2013-04-30 04:18:00,69.1,21.5,29.79,SSW,202,5.1,12.1,17,0.00,,,0.00,WUHU21623XXSP,2013-04-30 11:18:00,
2013-04-30 04:23:00,68.9,21.4,29.79,SSW,202,4.3,12.1,17,0.00,,,0.00,WUHU21623XXSP,2013-04-30 11:23:00,
2013-04-30 04:28:00,68.5,22.7,29.79,SSW,202,2.9,8.5,18,0.00,,,0.00,WUHU21623XXSP,2013-04-30 11:28:00,
2013-04-30 04:33:00,67.3,21.7,29.80,SSW,202,0.0,5.6,18,0.00,,,0.00,WUHU21623XXSP,2013-04-30 11:33:00,
2013-04-30 04:38:00,67.3,21.7,29.80,SSW,202,0.0,4.7,18,0.00,,,0.00,WUHU21623XXSP,2013-04-30 11:38:00,
2013-04-30 04:43:00,66.9,22.9,29.80,SSW,202,2.5,4.9,19,0.00,,,0.00,WUHU21623XXSP,2013-04-30 11:43:00,
2013-04-30 04:48:00,66.9,22.9,29.80,SSW,202,0.0,4.9,19,0.00,,,0.00,WUHU21623XXSP,2013-04-30 11:48:00,
2013-04-30 04:53:00,66.7,22.8,29.79,SSW,202,3.4,4.5,19,0.00,,,0.00,WUHU21623XXSP,2013-04-30 11:53:00,
2013-04-30 04:58:00,66.9,24.5,29.79,SSW,202,2.9,7.8,20,0.00,,,0.00,WUHU21623XXSP,2013-04-30 11:58:00,
2013-04-30 05:03:00,66.9,26.5,29.79,SSW,202,0.0,7.8,22,0.00,,,0.00,WUHU21623XXSP,2013-04-30 12:03:00,
2013-04-30 05:08:00,66.6,26.2,29.79,SSW,202,0.0,6.3,22,0.00,,,0.00,WUHU21623XXSP,2013-04-30 12:08:00,
2013-04-30 05:13:00,66.2,25.9,29.79,SSW,202,0.0,2.9,22,0.00,,,0.00,WUHU21623XXSP,2013-04-30 12:13:00,
2013-04-30 05:18:00,66.0,25.8,29.79,SSW,202,0.0,2.9,22,0.00,,,0.00,WUHU21623XXSP,2013-04-30 12:18:00,
2013-04-30 05:23:00,66.0,25.8,29.79,SSW,202,0.0,0.0,22,0.00,,,0.00,WUHU21623XXSP,2013-04-30 12:23:00,
2013-04-30 05:28:00,65.8,25.6,29.79,SSW,202,0.0,0.0,22,0.00,,,0.00,WUHU21623XXSP,2013-04-30 12:28:00,
2013-04-30 05:33:00,65.1,26.0,29.79,SSW,202,0.0,2.7,24,0.00,,,0.00,WUHU21623XXSP,2013-04-30 12:33:00,
2013-04-30 05:38:00,65.3,27.2,29.79,SSW,202,0.0,4.3,24,0.00,,,0.00,WUHU21623XXSP,2013-04-30 12:38:00,
2013-04-30 05:43:00,65.3,27.2,29.79,SSW,202,0.0,4.3,24,0.00,,,0.00,WUHU21623XXSP,2013-04-30 12:43:00,
2013-04-30 05:48:00,65.1,28.0,29.79,SSW,202,0.0,6.9,25,0.00,,,0.00,WUHU21623XXSP,2013-04-30 12:48:00,
2013-04-30 05:53:00,65.1,28.0,29.79,SSW,202,0.0,6.9,25,0.00,,,0.00,WUHU21623XXSP,2013-04-30 12:53:00,
2013-04-30 05:58:00,65.1,28.0,29.79,SSW,202,0.0,0.0,25,0.00,,,0.00,WUHU21623XXSP,2013-04-30 12:58:00,
2013-04-30 06:03:00,64.9,28.9,29.79,SSW,202,0.0,4.0,26,0.00,,,0.00,WUHU21623XXSP,2013-04-30 13:03:00,
2013-04-30 06:08:00,64.9,28.9,29.79,SSW,202,0.0,4.5,26,0.00,,,0.00,WUHU21623XXSP,2013-04-30 13:08:00,
2013-04-30 06:13:00,64.9,28.9,29.80,SSW,202,0.0,5.4,26,0.00,,,0.00,WUHU21623XXSP,2013-04-30 13:13:00,
2013-04-30 06:18:00,65.1,30.0,29.80,SW,225,0.0,8.3,27,0.00,,,0.00,WUHU21623XXSP,2013-04-30 13:18:00,
2013-04-30 06:23:00,65.5,29.3,29.80,SW,225,0.0,8.3,26,0.00,,,0.00,WUHU21623XXSP,2013-04-30 13:23:00,
2013-04-30 06:28:00,65.5,29.3,29.80,SW,225,0.0,3.1,26,0.00,,,0.00,WUHU21623XXSP,2013-04-30 13:28:00,
2013-04-30 06:33:00,65.5,30.3,29.79,SW,225,0.0,0.0,27,0.00,,,0.00,WUHU21623XXSP,2013-04-30 13:33:00,
2013-04-30 06:38:00,65.5,30.3,29.79,SW,225,0.0,0.0,27,0.00,,,0.00,WUHU21623XXSP,2013-04-30 13:38:00,
2013-04-30 06:43:00,65.5,30.3,29.80,SW,225,0.0,0.0,27,0.00,,,0.00,WUHU21623XXSP,2013-04-30 13:43:00,
2013-04-30 06:48:00,65.5,30.3,29.80,SW,225,0.0,0.0,27,0.00,,,0.00,WUHU21623XXSP,2013-04-30 13:48:00,
2013-04-30 06:53:00,65.5,30.3,29.80,SW,225,0.0,0.0,27,0.00,,,0.00,WUHU21623XXSP,2013-04-30 13:53:00,
2013-04-30 06:58:00,65.8,30.6,29.80,SW,225,0.0,0.0,27,0.00,,,0.00,WUHU21623XXSP,2013-04-30 13:58:00,
2013-04-30 07:03:00,66.0,30.8,29.80,SW,225,0.0,2.5,27,0.00,,,0.00,WUHU21623XXSP,2013-04-30 14:03:00,
2013-04-30 07:08:00,66.0,30.8,29.80,SW,225,0.0,2.5,27,0.00,,,0.00,WUHU21623XXSP,2013-04-30 14:08:00,
2013-04-30 07:13:00,66.4,31.1,29.80,SW,225,0.0,0.0,27,0.00,,,0.00,WUHU21623XXSP,2013-04-30 14:13:00,
2013-04-30 07:18:00,66.9,31.6,29.80,SW,225,0.0,0.0,27,0.00,,,0.00,WUHU21623XXSP,2013-04-30 14:18:00,
2013-04-30 07:23:00,66.7,31.4,29.80,SW,225,0.0,0.0,27,0.00,,,0.00,WUHU21623XXSP,2013-04-30 14:23:00,
2013-04-30 07:28:00,67.1,31.7,29.80,SW,225,0.0,0.0,27,0.00,,,0.00,WUHU21623XXSP,2013-04-30 14:28:00,
2013-04-30 07:33:00,67.6,32.1,29.80,SW,225,0.0,0.0,27,0.00,,,0.00,WUHU21623XXSP,2013-04-30 14:33:00,
2013-04-30 07:38:00,68.4,31.8,29.80,SW,225,0.0,0.0,26,0.00,,,0.00,WUHU21623XXSP,2013-04-30 14:38:00,
2013-04-30 07:43:00,69.1,32.4,29.80,SW,225,0.0,0.0,26,0.00,,,0.00,WUHU21623XXSP,2013-04-30 14:43:00,
2013-04-30 07:48:00,70.0,32.1,29.80,SW,225,0.0,2.9,25,0.00,,,0.00,WUHU21623XXSP,2013-04-30 14:48:00,
2013-04-30 07:53:00,70.9,31.9,29.80,SW,225,0.0,2.9,24,0.00,,,0.00,WUHU21623XXSP,2013-04-30 14:53:00,
2013-04-30 07:58:00,71.6,32.5,29.80,SW,225,0.0,0.0,24,0.00,,,0.00,WUHU21623XXSP,2013-04-30 14:58:00,
2013-04-30 08:03:00,72.3,33.1,29.80,SW,225,2.5,3.8,24,0.00,,,0.00,WUHU21623XXSP,2013-04-30 15:03:00,
2013-04-30 08:08:00,73.0,32.7,29.80,SW,225,3.6,3.8,23,0.00,,,0.00,WUHU21623XXSP,2013-04-30 15:08:00,
2013-04-30 08:13:00,73.2,31.9,29.81,SW,225,0.0,3.6,22,0.00,,,0.00,WUHU21623XXSP,2013-04-30 15:13:00,
2013-04-30 08:18:00,73.2,31.9,29.81,SW,225,0.0,0.0,22,0.00,,,0.00,WUHU21623XXSP,2013-04-30 15:18:00,
2013-04-30 08:23:00,73.8,31.3,29.80,SW,225,0.0,4.5,21,0.00,,,0.00,WUHU21623XXSP,2013-04-30 15:23:00,
2013-04-30 08:28:00,74.3,29.1,29.81,SW,225,0.0,4.5,19,0.00,,,0.00,WUHU21623XXSP,2013-04-30 15:28:00,
2013-04-30 08:33:00,74.3,29.1,29.81,SW,225,0.0,5.1,19,0.00,,,0.00,WUHU21623XXSP,2013-04-30 15:33:00,
2013-04-30 08:38:00,74.5,27.6,29.81,SW,225,0.0,5.1,18,0.00,,,0.00,WUHU21623XXSP,2013-04-30 15:38:00,
2013-04-30 08:43:00,75.0,28.0,29.81,SW,225,0.0,3.6,18,0.00,,,0.00,WUHU21623XXSP,2013-04-30 15:43:00,
2013-04-30 08:48:00,75.4,28.3,29.81,SW,225,0.0,0.0,18,0.00,,,0.00,WUHU21623XXSP,2013-04-30 15:48:00,
2013-04-30 08:53:00,75.9,28.7,29.81,SW,225,0.0,0.0,18,0.00,,,0.00,WUHU21623XXSP,2013-04-30 15:53:00,
2013-04-30 08:58:00,76.6,29.3,29.81,SW,225,0.0,0.0,18,0.00,,,0.00,WUHU21623XXSP,2013-04-30 15:58:00,
2013-04-30 09:03:00,77.2,28.1,29.81,SW,225,0.0,0.0,17,0.00,,,0.00,WUHU21623XXSP,2013-04-30 16:03:00,
2013-04-30 09:08:00,77.7,30.1,29.81,SW,225,0.0,0.9,18,0.00,,,0.00,WUHU21623XXSP,2013-04-30 16:08:00,
2013-04-30 09:13:00,77.7,30.1,29.81,ESE,112,5.4,6.5,18,0.00,,,0.00,WUHU21623XXSP,2013-04-30 16:13:00,
2013-04-30 09:18:00,78.4,30.7,29.80,ESE,112,0.0,7.4,18,0.00,,,0.00,WUHU21623XXSP,2013-04-30 16:18:00,
2013-04-30 09:23:00,79.0,31.1,29.81,SE,135,0.0,7.4,18,0.00,,,0.00,WUHU21623XXSP,2013-04-30 16:23:00,
2013-04-30 09:28:00,79.0,31.1,29.81,SSE,157,3.8,10.3,18,0.00,,,0.00,WUHU21623XXSP,2013-04-30 16:28:00,
2013-04-30 09:33:00,79.0,32.8,29.81,SSE,157,0.0,10.3,19,0.00,,,0.00,WUHU21623XXSP,2013-04-30 16:33:00,
2013-04-30 09:38:00,79.3,34.8,29.81,SSE,157,0.0,8.7,20,0.00,,,0.00,WUHU21623XXSP,2013-04-30 16:38:00,
2013-04-30 09:43:00,79.5,33.3,29.81,South,180,3.1,6.3,19,0.00,,,0.00,WUHU21623XXSP,2013-04-30 16:43:00,
2013-04-30 09:48:00,79.9,35.3,29.81,South,180,4.9,8.7,20,0.00,,,0.00,WUHU21623XXSP,2013-04-30 16:48:00,
2013-04-30 09:53:00,80.1,35.5,29.81,South,180,2.0,8.7,20,0.00,,,0.00,WUHU21623XXSP,2013-04-30 16:53:00,
2013-04-30 09:58:00,80.4,34.1,29.81,South,180,4.5,6.3,19,0.00,,,0.00,WUHU21623XXSP,2013-04-30 16:58:00,
2013-04-30 10:03:00,81.3,34.8,29.81,South,180,3.4,8.1,19,0.00,,,0.00,WUHU21623XXSP,2013-04-30 17:03:00,
2013-04-30 10:08:00,81.5,35.0,29.82,SSW,202,3.6,9.2,19,0.00,,,0.00,WUHU21623XXSP,2013-04-30 17:08:00,
2013-04-30 10:13:00,81.7,35.1,29.82,SSW,202,4.7,9.6,19,0.00,,,0.00,WUHU21623XXSP,2013-04-30 17:13:00,
2013-04-30 10:18:00,81.3,33.2,29.82,SE,135,5.1,9.6,18,0.00,,,0.00,WUHU21623XXSP,2013-04-30 17:18:00,
2013-04-30 10:23:00,81.0,34.6,29.82,SE,135,11.0,11.6,19,0.00,,,0.00,WUHU21623XXSP,2013-04-30 17:23:00,
2013-04-30 10:28:00,81.0,32.9,29.82,SSE,157,3.8,11.6,18,0.00,,,0.00,WUHU21623XXSP,2013-04-30 17:28:00,
2013-04-30 10:33:00,81.0,32.9,29.82,SSE,157,3.1,11.6,18,0.00,,,0.00,WUHU21623XXSP,2013-04-30 17:33:00,
2013-04-30 10:38:00,81.1,33.0,29.82,SSW,202,10.5,11.6,18,0.00,,,0.00,WUHU21623XXSP,2013-04-30 17:38:00,
2013-04-30 10:43:00,82.0,32.0,29.82,SSW,202,4.9,12.5,17,0.00,,,0.00,WUHU21623XXSP,2013-04-30 17:43:00,
2013-04-30 10:48:00,82.0,32.0,29.82,SW,225,8.9,12.5,17,0.00,,,0.00,WUHU21623XXSP,2013-04-30 17:48:00,
2013-04-30 10:53:00,82.2,33.9,29.82,SSW,202,2.2,12.8,18,0.00,,,0.00,WUHU21623XXSP,2013-04-30 17:53:00,
2013-04-30 10:58:00,82.9,36.1,29.82,South,180,5.1,13.6,19,0.00,,,0.00,WUHU21623XXSP,2013-04-30 17:58:00,
2013-04-30 11:04:00,83.3,36.4,29.82,SSW,202,11.4,13.6,19,0.00,,,0.00,WUHU21623XXSP,2013-04-30 18:04:00,
2013-04-30 11:08:00,83.7,36.7,29.82,SW,225,2.7,12.8,19,0.00,,,0.00,WUHU21623XXSP,2013-04-30 18:08:00,
2013-04-30 11:14:00,83.7,36.7,29.82,SSW,202,10.7,15.0,19,0.00,,,0.00,WUHU21623XXSP,2013-04-30 18:14:00,
2013-04-30 11:19:00,83.8,36.8,29.82,South,180,8.5,15.4,19,0.00,,,0.00,WUHU21623XXSP,2013-04-30 18:19:00,
2013-04-30 11:24:00,84.0,37.0,29.82,SSW,202,12.3,17.7,19,0.00,,,0.00,WUHU21623XXSP,2013-04-30 18:24:00,
2013-04-30 11:29:00,84.2,37.1,29.82,SSW,202,6.9,17.7,19,0.00,,,0.00,WUHU21623XXSP,2013-04-30 18:29:00,
2013-04-30 11:34:00,84.0,38.7,29.82,SW,225,10.7,14.8,20,0.00,,,0.00,WUHU21623XXSP,2013-04-30 18:34:00,
2013-04-30 11:39:00,84.4,39.0,29.82,SW,225,7.8,14.1,20,0.00,,,0.00,WUHU21623XXSP,2013-04-30 18:39:00,
2013-04-30 11:44:00,84.7,37.6,29.82,SSW,202,4.7,20.4,19,0.00,,,0.00,WUHU21623XXSP,2013-04-30 18:44:00,
2013-04-30 11:49:00,84.4,39.0,29.82,South,180,6.0,20.4,20,0.00,,,0.00,WUHU21623XXSP,2013-04-30 18:49:00,
2013-04-30 11:54:00,84.0,38.7,29.81,SSW,202,8.1,19.2,20,0.00,,,0.00,WUHU21623XXSP,2013-04-30 18:54:00,
2013-04-30 11:59:00,84.4,39.0,29.81,South,180,6.7,18.6,20,0.00,,,0.00,WUHU21623XXSP,2013-04-30 18:59:00,
2013-04-30 12:04:00,84.0,38.7,29.81,SSE,157,12.8,18.6,20,0.00,,,0.00,WUHU21623XXSP,2013-04-30 19:04:00,
2013-04-30 12:09:00,83.8,38.6,29.82,South,180,4.3,17.4,20,0.00,,,0.00,WUHU21623XXSP,2013-04-30 19:09:00,
2013-04-30 12:14:00,84.0,38.7,29.81,SSW,202,10.7,19.9,20,0.00,,,0.00,WUHU21623XXSP,2013-04-30 19:14:00,
2013-04-30 12:19:00,85.1,39.6,29.81,SW,225,6.0,19.9,20,0.00,,,0.00,WUHU21623XXSP,2013-04-30 19:19:00,
2013-04-30 12:24:00,85.8,38.4,29.81,SSW,202,13.0,19.0,19,0.00,,,0.00,WUHU21623XXSP,2013-04-30 19:24:00,
2013-04-30 12:29:00,85.1,39.6,29.81,South,180,8.1,19.0,20,0.00,,,0.00,WUHU21623XXSP,2013-04-30 19:29:00,
2013-04-30 12:34:00,84.9,39.4,29.81,SSE,157,6.7,17.7,20,0.00,,,0.00,WUHU21623XXSP,2013-04-30 19:34:00,
2013-04-30 12:39:00,85.1,39.6,29.80,SSW,202,8.7,19.2,20,0.00,,,0.00,WUHU21623XXSP,2013-04-30 19:39:00,
2013-04-30 12:44:00,84.9,39.4,29.80,SSW,202,8.7,23.5,20,0.00,,,0.00,WUHU21623XXSP,2013-04-30 19:44:00,
2013-04-30 12:49:00,84.6,39.1,29.81,SSE,157,5.6,23.5,20,0.00,,,0.00,WUHU21623XXSP,2013-04-30 19:49:00,
2013-04-30 12:54:00,83.7,39.5,29.81,SSE,157,11.9,27.1,21,0.00,,,0.00,WUHU21623XXSP,2013-04-30 19:54:00,
2013-04-30 12:59:00,83.5,39.3,29.81,SSW,202,15.0,27.1,21,0.00,,,0.00,WUHU21623XXSP,2013-04-30 19:59:00,
2013-04-30 13:04:00,83.5,39.3,29.80,SSE,157,6.0,19.0,21,0.00,,,0.00,WUHU21623XXSP,2013-04-30 20:04:00,
2013-04-30 13:09:00,83.5,39.3,29.81,South,180,11.9,22.4,21,0.00,,,0.00,WUHU21623XXSP,2013-04-30 20:09:00,
2013-04-30 13:14:00,83.8,39.6,29.81,SSW,202,5.1,22.4,21,0.00,,,0.00,WUHU21623XXSP,2013-04-30 20:14:00,
2013-04-30 13:19:00,84.0,38.7,29.81,South,180,4.9,24.6,20,0.00,,,0.00,WUHU21623XXSP,2013-04-30 20:19:00,
2013-04-30 13:24:00,84.2,38.8,29.82,SSE,157,11.0,24.6,20,0.00,,,0.00,WUHU21623XXSP,2013-04-30 20:24:00,
2013-04-30 13:29:00,83.8,38.6,29.82,SW,225,19.7,20.4,20,0.00,,,0.00,WUHU21623XXSP,2013-04-30 20:29:00,
2013-04-30 13:34:00,83.8,38.6,29.81,WSW,247,8.5,21.9,20,0.00,,,0.00,WUHU21623XXSP,2013-04-30 20:34:00,
2013-04-30 13:39:00,83.8,38.6,29.82,WSW,247,7.6,21.9,20,0.00,,,0.00,WUHU21623XXSP,2013-04-30 20:39:00,
2013-04-30 13:44:00,83.8,38.6,29.81,WSW,247,4.0,24.4,20,0.00,,,0.00,WUHU21623XXSP,2013-04-30 20:44:00,
2013-04-30 13:49:00,84.6,39.1,29.81,WSW,247,16.1,24.4,20,0.00,,,0.00,WUHU21623XXSP,2013-04-30 20:49:00,
2013-04-30 13:54:00,84.4,39.0,29.81,WSW,247,13.6,18.8,20,0.00,,,0.00,WUHU21623XXSP,2013-04-30 20:54:00,
2013-04-30 13:59:00,84.2,38.8,29.81,WSW,247,9.2,18.8,20,0.00,,,0.00,WUHU21623XXSP,2013-04-30 20:59:00,
2013-04-30 14:04:00,84.2,38.8,29.81,WSW,247,16.3,19.9,20,0.00,,,0.00,WUHU21623XXSP,2013-04-30 21:04:00,
2013-04-30 14:09:00,84.4,39.0,29.81,WSW,247,7.2,19.9,20,0.00,,,0.00,WUHU21623XXSP,2013-04-30 21:09:00,
2013-04-30 14:14:00,84.0,38.7,29.81,WSW,247,14.5,22.6,20,0.00,,,0.00,WUHU21623XXSP,2013-04-30 21:14:00,
2013-04-30 14:19:00,83.8,38.6,29.81,WSW,247,13.6,22.6,20,0.00,,,0.00,WUHU21623XXSP,2013-04-30 21:19:00,
2013-04-30 14:24:00,83.8,38.6,29.81,WSW,247,10.1,25.5,20,0.00,,,0.00,WUHU21623XXSP,2013-04-30 21:24:00,
2013-04-30 14:29:00,84.0,38.7,29.81,WSW,247,15.0,25.5,20,0.00,,,0.00,WUHU21623XXSP,2013-04-30 21:29:00,
2013-04-30 14:34:00,83.5,39.3,29.81,WSW,247,9.4,19.9,21,0.00,,,0.00,WUHU21623XXSP,2013-04-30 21:34:00,
2013-04-30 14:39:00,83.3,39.2,29.81,WSW,247,18.1,19.5,21,0.00,,,0.00,WUHU21623XXSP,2013-04-30 21:39:00,
2013-04-30 14:44:00,83.5,38.3,29.81,WSW,247,13.0,20.1,20,0.00,,,0.00,WUHU21623XXSP,2013-04-30 21:44:00,
2013-04-30 14:49:00,83.1,39.0,29.81,WSW,247,13.4,23.7,21,0.00,,,0.00,WUHU21623XXSP,2013-04-30 21:49:00,
2013-04-30 14:54:00,82.9,38.9,29.80,WSW,247,16.6,23.7,21,0.00,,,0.00,WUHU21623XXSP,2013-04-30 21:54:00,
2013-04-30 14:59:00,82.9,38.9,29.80,WSW,247,8.7,19.7,21,0.00,,,0.00,WUHU21623XXSP,2013-04-30 21:59:00,
2013-04-30 15:04:00,82.8,38.7,29.80,WSW,247,5.1,21.7,21,0.00,,,0.00,WUHU21623XXSP,2013-04-30 22:04:00,
2013-04-30 15:09:00,83.1,39.0,29.80,WSW,247,12.8,21.7,21,0.00,,,0.00,WUHU21623XXSP,2013-04-30 22:09:00,
2013-04-30 15:14:00,82.9,38.9,29.80,WSW,247,13.2,18.3,21,0.00,,,0.00,WUHU21623XXSP,2013-04-30 22:14:00,
2013-04-30 15:19:00,83.1,39.0,29.80,WSW,247,10.5,26.8,21,0.00,,,0.00,WUHU21623XXSP,2013-04-30 22:19:00,
2013-04-30 15:24:00,82.9,39.9,29.79,WSW,247,14.5,26.8,22,0.00,,,0.00,WUHU21623XXSP,2013-04-30 22:24:00,
2013-04-30 15:29:00,82.9,39.9,29.79,WSW,247,8.5,22.4,22,0.00,,,0.00,WUHU21623XXSP,2013-04-30 22:29:00,
2013-04-30 15:34:00,82.2,39.3,29.79,WSW,247,12.5,20.6,22,0.00,,,0.00,WUHU21623XXSP,2013-04-30 22:34:00,
2013-04-30 15:39:00,82.2,39.3,29.79,WSW,247,6.7,20.6,22,0.00,,,0.00,WUHU21623XXSP,2013-04-30 22:39:00,
2013-04-30 15:44:00,82.2,40.4,29.79,WSW,247,13.9,23.7,23,0.00,,,0.00,WUHU21623XXSP,2013-04-30 22:44:00,
2013-04-30 15:49:00,81.3,39.7,29.79,WSW,247,11.2,24.4,23,0.00,,,0.00,WUHU21623XXSP,2013-04-30 22:49:00,
2013-04-30 15:54:00,81.5,39.8,29.79,WSW,247,14.1,24.4,23,0.00,,,0.00,WUHU21623XXSP,2013-04-30 22:54:00,
2013-04-30 15:59:00,81.5,40.9,29.79,WSW,247,10.3,20.4,24,0.00,,,0.00,WUHU21623XXSP,2013-04-30 22:59:00,
2013-04-30 16:04:00,81.3,40.7,29.79,WSW,247,7.4,21.7,24,0.00,,,0.00,WUHU21623XXSP,2013-04-30 23:04:00,
2013-04-30 16:09:00,81.1,40.6,29.78,WSW,247,18.1,21.7,24,0.00,,,0.00,WUHU21623XXSP,2013-04-30 23:09:00,
2013-04-30 16:14:00,80.4,40.0,29.79,WSW,247,14.3,25.1,24,0.00,,,0.00,WUHU21623XXSP,2013-04-30 23:14:00,
2013-04-30 16:19:00,80.4,40.0,29.79,WSW,247,11.6,25.1,24,0.00,,,0.00,WUHU21623XXSP,2013-04-30 23:19:00,
2013-04-30 16:24:00,80.4,40.0,29.79,WSW,247,12.1,23.0,24,0.00,,,0.00,WUHU21623XXSP,2013-04-30 23:24:00,
2013-04-30 16:29:00,80.2,39.8,29.79,WSW,247,11.4,23.0,24,0.00,,,0.00,WUHU21623XXSP,2013-04-30 23:29:00,
2013-04-30 16:34:00,80.4,40.0,29.79,WSW,247,11.2,19.9,24,0.00,,,0.00,WUHU21623XXSP,2013-04-30 23:34:00,
2013-04-30 16:39:00,80.2,39.8,29.79,WSW,247,13.6,19.9,24,0.00,,,0.00,WUHU21623XXSP,2013-04-30 23:39:00,
2013-04-30 16:44:00,80.2,39.8,29.78,WSW,247,25.1,25.3,24,0.00,,,0.00,WUHU21623XXSP,2013-04-30 23:44:00,
2013-04-30 16:49:00,79.5,40.2,29.78,WSW,247,13.6,25.3,25,0.00,,,0.00,WUHU21623XXSP,2013-04-30 23:49:00,
2013-04-30 16:54:00,79.5,39.2,29.78,WSW,247,7.4,22.6,25,0.00,,,0.00,WUHU21623XXSP,2013-04-30 23:54:00,
2013-04-30 16:59:00,79.5,39.2,29.78,WSW,247,12.5,19.2,24,0.00,,,0.00,WUHU21623XXSP,2013-04-30 23:59:00,
2013-04-30 17:04:00,79.5,39.2,29.78,WSW,247,9.6,17.4,24,0.00,,,0.00,WUHU21623XXSP,2013-05-01 00:04:00,
2013-04-30 17:09:00,79.5,41.3,29.78,WSW,247,10.7,19.0,26,0.00,,,0.00,WUHU21623XXSP,2013-05-01 00:09:00,
2013-04-30 17:14:00,79.7,41.4,29.78,WSW,247,6.3,19.0,26,0.00,,,0.00,WUHU21623XXSP,2013-05-01 00:14:00,
2013-04-30 17:19:00,79.9,41.6,29.78,WSW,247,13.2,17.2,26,0.00,,,0.00,WUHU21623XXSP,2013-05-01 00:19:00,
2013-04-30 17:24:00,79.7,41.4,29.78,WSW,247,8.3,16.8,26,0.00,,,0.00,WUHU21623XXSP,2013-05-01 00:24:00,
2013-04-30 17:29:00,79.9,42.6,29.79,WSW,247,15.0,16.8,27,0.00,,,0.00,WUHU21623XXSP,2013-05-01 00:29:00,
2013-04-30 17:34:00,79.3,42.1,29.78,WSW,247,11.4,16.6,27,0.00,,,0.00,WUHU21623XXSP,2013-05-01 00:34:00,
2013-04-30 17:39:00,79.3,42.1,29.78,WSW,247,10.5,16.1,27,0.00,,,0.00,WUHU21623XXSP,2013-05-01 00:39:00,
2013-04-30 17:44:00,79.2,42.0,29.78,WSW,247,8.9,13.4,27,0.00,,,0.00,WUHU21623XXSP,2013-05-01 00:44:00,
2013-04-30 17:49:00,79.2,40.9,29.78,WSW,247,14.3,18.8,26,0.00,,,0.00,WUHU21623XXSP,2013-05-01 00:49:00,
2013-04-30 17:54:00,79.0,41.8,29.77,WSW,247,7.4,18.8,27,0.00,,,0.00,WUHU21623XXSP,2013-05-01 00:54:00,
2013-04-30 17:59:00,79.0,41.8,29.78,WSW,247,10.7,15.0,27,0.00,,,0.00,WUHU21623XXSP,2013-05-01 00:59:00,
2013-04-30 18:04:00,78.6,42.5,29.77,WSW,247,6.9,17.0,28,0.00,,,0.00,WUHU21623XXSP,2013-05-01 01:04:00,
2013-04-30 18:09:00,78.1,42.1,29.77,WSW,247,4.0,17.0,28,0.00,,,0.00,WUHU21623XXSP,2013-05-01 01:09:00,
2013-04-30 18:14:00,78.1,43.2,29.77,WSW,247,11.4,16.8,29,0.00,,,0.00,WUHU21623XXSP,2013-05-01 01:14:00,
2013-04-30 18:19:00,77.5,43.8,29.78,WSW,247,13.4,15.9,30,0.00,,,0.00,WUHU21623XXSP,2013-05-01 01:19:00,
2013-04-30 18:24:00,77.5,43.8,29.78,WSW,247,7.4,16.8,30,0.00,,,0.00,WUHU21623XXSP,2013-05-01 01:24:00,
2013-04-30 18:29:00,77.2,43.5,29.78,WSW,247,8.5,16.8,30,0.00,,,0.00,WUHU21623XXSP,2013-05-01 01:29:00,
2013-04-30 18:34:00,77.2,44.2,29.77,WSW,247,4.0,12.5,31,0.00,,,0.00,WUHU21623XXSP,2013-05-01 01:34:00,
2013-04-30 18:39:00,76.8,43.9,29.78,WSW,247,11.0,13.6,31,0.00,,,0.00,WUHU21623XXSP,2013-05-01 01:39:00,
2013-04-30 18:44:00,76.8,43.9,29.78,WSW,247,4.3,13.6,31,0.00,,,0.00,WUHU21623XXSP,2013-05-01 01:44:00,
2013-04-30 18:49:00,76.6,44.5,29.78,WSW,247,3.6,12.3,32,0.00,,,0.00,WUHU21623XXSP,2013-05-01 01:49:00,
2013-04-30 18:54:00,76.3,44.2,29.78,WSW,247,9.8,11.2,32,0.00,,,0.00,WUHU21623XXSP,2013-05-01 01:54:00,
2013-04-30 18:59:00,75.9,43.9,29.78,WSW,247,8.3,11.2,32,0.00,,,0.00,WUHU21623XXSP,2013-05-01 01:59:00,
2013-04-30 19:04:00,75.6,44.3,29.78,SW,225,9.2,11.9,33,0.00,,,0.00,WUHU21623XXSP,2013-05-01 02:04:00,
2013-04-30 19:09:00,75.0,43.8,29.78,SW,225,7.4,13.0,33,0.00,,,0.00,WUHU21623XXSP,2013-05-01 02:09:00,
2013-04-30 19:14:00,74.8,44.4,29.78,SW,225,4.0,13.0,34,0.00,,,0.00,WUHU21623XXSP,2013-05-01 02:14:00,
2013-04-30 19:19:00,74.5,44.1,29.78,SW,225,6.3,9.4,34,0.00,,,0.00,WUHU21623XXSP,2013-05-01 02:19:00,
2013-04-30 19:24:00,74.3,43.9,29.79,SW,225,4.9,7.2,34,0.00,,,0.00,WUHU21623XXSP,2013-05-01 02:24:00,
2013-04-30 19:29:00,74.1,43.8,29.78,SW,225,5.1,7.4,34,0.00,,,0.00,WUHU21623XXSP,2013-05-01 02:29:00,
2013-04-30 19:34:00,73.9,43.6,29.79,SSW,202,6.3,7.4,34,0.00,,,0.00,WUHU21623XXSP,2013-05-01 02:34:00,
2013-04-30 19:39:00,73.6,43.3,29.79,SSW,202,5.4,8.7,34,0.00,,,0.00,WUHU21623XXSP,2013-05-01 02:39:00,
2013-04-30 19:44:00,73.6,43.3,29.79,SSW,202,7.6,8.7,34,0.00,,,0.00,WUHU21623XXSP,2013-05-01 02:44:00,
2013-04-30 19:49:00,73.2,43.0,29.79,SW,225,4.0,10.3,34,0.00,,,0.00,WUHU21623XXSP,2013-05-01 02:49:00,
2013-04-30 19:54:00,73.0,42.8,29.79,SSW,202,6.0,11.2,34,0.00,,,0.00,WUHU21623XXSP,2013-05-01 02:54:00,
2013-04-30 19:59:00,72.7,43.3,29.79,SW,225,8.3,11.2,35,0.00,,,0.00,WUHU21623XXSP,2013-05-01 02:59:00,
2013-04-30 20:04:00,72.3,43.0,29.79,SW,225,5.1,9.2,35,0.00,,,0.00,WUHU21623XXSP,2013-05-01 03:04:00,
2013-04-30 20:09:00,72.1,42.8,29.79,SW,225,5.1,9.4,35,0.00,,,0.00,WUHU21623XXSP,2013-05-01 03:09:00,
2013-04-30 20:14:00,72.1,42.8,29.79,SW,225,7.4,9.4,35,0.00,,,0.00,WUHU21623XXSP,2013-05-01 03:14:00,
2013-04-30 20:19:00,72.0,42.7,29.79,SW,225,8.5,8.5,35,0.00,,,0.00,WUHU21623XXSP,2013-05-01 03:19:00,
2013-04-30 20:24:00,71.8,42.5,29.80,SW,225,0.0,8.5,35,0.00,,,0.00,WUHU21623XXSP,2013-05-01 03:24:00,
2013-04-30 20:29:00,71.4,42.9,29.80,SW,225,6.7,8.3,36,0.00,,,0.00,WUHU21623XXSP,2013-05-01 03:29:00,
2013-04-30 20:34:00,71.2,42.8,29.80,SSW,202,8.7,9.8,36,0.00,,,0.00,WUHU21623XXSP,2013-05-01 03:34:00,
2013-04-30 20:39:00,70.9,42.4,29.80,SSW,202,5.8,9.8,36,0.00,,,0.00,WUHU21623XXSP,2013-05-01 03:39:00,
2013-04-30 20:44:00,70.3,42.7,29.79,SSE,157,7.4,11.0,37,0.00,,,0.00,WUHU21623XXSP,2013-05-01 03:44:00,
2013-04-30 20:49:00,70.0,42.4,29.80,South,180,7.8,11.0,37,0.00,,,0.00,WUHU21623XXSP,2013-05-01 03:49:00,
2013-04-30 20:54:00,69.6,42.0,29.80,South,180,12.5,13.6,37,0.00,,,0.00,WUHU21623XXSP,2013-05-01 03:54:00,
2013-04-30 20:59:00,69.4,41.9,29.80,SSE,157,6.7,13.6,37,0.00,,,0.00,WUHU21623XXSP,2013-05-01 03:59:00,
2013-04-30 21:01:00,69.4,41.9,29.80,SSE,157,0.0,13.6,37,0.00,,,0.00,WUHU21623XXSP,2013-05-01 04:01:00,
2013-04-30 21:06:00,69.4,41.1,29.80,South,180,9.6,11.6,36,0.00,,,0.00,WUHU21623XXSP,2013-05-01 04:06:00,
2013-04-30 21:11:00,69.3,41.0,29.81,South,180,5.1,12.8,36,0.00,,,0.00,WUHU21623XXSP,2013-05-01 04:11:00,
2013-04-30 21:16:00,69.1,40.8,29.81,SSE,157,10.1,13.2,36,0.00,,,0.00,WUHU21623XXSP,2013-05-01 04:16:00,
2013-04-30 21:21:00,68.9,40.7,29.81,South,180,5.1,13.2,36,0.00,,,0.00,WUHU21623XXSP,2013-05-01 04:21:00,
2013-04-30 21:26:00,68.9,40.7,29.81,South,180,4.3,9.8,36,0.00,,,0.00,WUHU21623XXSP,2013-05-01 04:26:00,
2013-04-30 21:31:00,69.1,40.1,29.81,South,180,0.0,11.0,35,0.00,,,0.00,WUHU21623XXSP,2013-05-01 04:31:00,
2013-04-30 21:36:00,69.3,40.2,29.81,South,180,0.0,11.0,35,0.00,,,0.00,WUHU21623XXSP,2013-05-01 04:36:00,
2013-04-30 21:41:00,69.1,40.8,29.81,South,180,0.0,6.9,36,0.00,,,0.00,WUHU21623XXSP,2013-05-01 04:41:00,
2013-04-30 21:47:00,69.1,40.1,29.81,South,180,0.0,3.1,35,0.00,,,0.00,WUHU21623XXSP,2013-05-01 04:47:00,
2013-04-30 21:52:00,68.9,39.9,29.81,South,180,0.0,2.5,35,0.00,,,0.00,WUHU21623XXSP,2013-05-01 04:52:00,
2013-04-30 21:57:00,68.9,39.9,29.81,South,180,0.0,4.5,35,0.00,,,0.00,WUHU21623XXSP,2013-05-01 04:57:00,
2013-04-30 22:02:00,68.9,39.2,29.81,South,180,0.0,4.5,34,0.00,,,0.00,WUHU21623XXSP,2013-05-01 05:02:00,
2013-04-30 22:07:00,68.7,39.0,29.82,South,180,0.0,0.0,34,0.00,,,0.00,WUHU21623XXSP,2013-05-01 05:07:00,
2013-04-30 22:12:00,68.7,39.0,29.82,South,180,0.0,0.0,34,0.00,,,0.00,WUHU21623XXSP,2013-05-01 05:12:00,
2013-04-30 22:17:00,68.7,39.0,29.82,South,180,0.0,0.0,34,0.00,,,0.00,WUHU21623XXSP,2013-05-01 05:17:00,
2013-04-30 22:22:00,68.2,38.5,29.82,South,180,2.0,5.6,34,0.00,,,0.00,WUHU21623XXSP,2013-05-01 05:22:00,
2013-04-30 22:27:00,68.2,38.5,29.82,South,180,0.0,5.6,34,0.00,,,0.00,WUHU21623XXSP,2013-05-01 05:27:00,
2013-04-30 22:32:00,68.2,38.5,29.82,South,180,0.0,0.7,34,0.00,,,0.00,WUHU21623XXSP,2013-05-01 05:32:00,
2013-04-30 22:37:00,67.8,37.5,29.82,South,180,0.0,0.0,33,0.00,,,0.00,WUHU21623XXSP,2013-05-01 05:37:00,
2013-04-30 22:42:00,67.8,37.5,29.83,South,180,0.0,0.0,33,0.00,,,0.00,WUHU21623XXSP,2013-05-01 05:42:00,
2013-04-30 22:47:00,67.6,37.3,29.83,South,180,0.0,0.0,33,0.00,,,0.00,WUHU21623XXSP,2013-05-01 05:47:00,
2013-04-30 22:52:00,67.3,37.8,29.83,South,180,0.0,0.0,34,0.00,,,0.00,WUHU21623XXSP,2013-05-01 05:52:00,
2013-04-30 22:57:00,67.3,37.8,29.83,South,180,0.0,0.0,34,0.00,,,0.00,WUHU21623XXSP,2013-05-01 05:57:00,
2013-04-30 23:02:00,67.3,37.8,29.83,South,180,0.0,0.0,34,0.00,,,0.00,WUHU21623XXSP,2013-05-01 06:02:00,
2013-04-30 23:07:00,67.3,37.8,29.83,South,180,0.0,0.0,34,0.00,,,0.00,WUHU21623XXSP,2013-05-01 06:07:00,
2013-04-30 23:12:00,67.1,37.6,29.83,South,180,0.0,0.0,34,0.00,,,0.00,WUHU21623XXSP,2013-05-01 06:12:00,
2013-04-30 23:17:00,67.1,37.6,29.83,South,180,0.0,0.0,34,0.00,,,0.00,WUHU21623XXSP,2013-05-01 06:17:00,
2013-04-30 23:22:00,67.1,37.6,29.83,South,180,0.0,0.0,34,0.00,,,0.00,WUHU21623XXSP,2013-05-01 06:22:00,
2013-04-30 23:27:00,66.9,37.5,29.83,South,180,0.0,0.0,34,0.00,,,0.00,WUHU21623XXSP,2013-05-01 06:27:00,
2013-04-30 23:32:00,66.7,36.6,29.83,South,180,0.0,0.0,33,0.00,,,0.00,WUHU21623XXSP,2013-05-01 06:32:00,
2013-04-30 23:37:00,66.7,36.6,29.82,South,180,0.0,0.0,33,0.00,,,0.00,WUHU21623XXSP,2013-05-01 06:37:00,
2013-04-30 23:42:00,66.4,35.6,29.83,South,180,0.0,0.0,32,0.00,,,0.00,WUHU21623XXSP,2013-05-01 06:42:00,
2013-04-30 23:47:00,66.4,35.6,29.83,South,180,0.0,0.0,32,0.00,,,0.00,WUHU21623XXSP,2013-05-01 06:47:00,
2013-04-30 23:52:00,65.8,35.1,29.83,South,180,0.0,0.0,32,0.00,,,0.00,WUHU21623XXSP,2013-05-01 06:52:00,
2013-04-30 23:57:00,65.7,34.9,29.83,South,180,0.0,0.0,32,0.00,,,0.00,WUHU21623XXSP,2013-05-01 06:57:00,